| time (UTC) | temp F | wind direction | speed knots | gust knots | rain 1hr in | rain 24hr in | rain mn in | humidity % | barometer mb |
| 20260510120041 | 63 | 0.0 | 0.0 | 0.00 | 0.00 | 0.00 | 100 | 1016.7 | |
| 20260510114541 | 63 | 0.0 | 0.0 | 0.00 | 0.00 | 0.00 | 100 | 1016.4 | |
| 20260510113038 | 63 | 0.0 | 0.0 | 0.00 | 0.00 | 0.00 | 100 | 1016.1 | |
| 20260510111555 | 63 | 0.0 | 0.0 | 0.00 | 0.00 | 0.00 | 100 | 1015.7 | |
| 20260510110043 | 63 | 0.0 | 0.0 | 0.00 | 0.00 | 0.00 | 100 | 1015.2 | |
| 20260510104551 | 63 | 0.0 | 0.0 | 0.00 | 0.00 | 0.00 | 100 | 1015.2 | |
| 20260510103044 | 63 | 0.0 | 0.0 | 0.00 | 0.00 | 0.00 | 100 | 1014.9 | |
| 20260510101542 | 63 | 0.0 | 0.0 | 0.00 | 0.00 | 0.00 | 100 | 1014.8 | |
| 20260510100046 | 63 | 0.0 | 0.0 | 0.00 | 0.00 | 0.00 | 100 | 1014.8 | |
| 20260510094545 | 63 | 0.0 | 0.0 | 0.00 | 0.00 | 0.00 | 100 | 1014.7 | |
| 20260510093042 | 62 | 0.0 | 0.0 | 0.00 | 0.00 | 0.00 | 100 | 1014.5 | |
| 20260510091543 | 62 | 0.0 | 0.0 | 0.00 | 0.00 | 0.00 | 100 | 1014.3 | |
| 20260510090055 | 62 | 0.0 | 0.0 | 0.00 | 0.00 | 0.00 | 100 | 1014.0 | |
| 20260510084541 | 62 | 0.0 | 0.0 | 0.00 | 0.00 | 0.00 | 100 | 1014.1 | |
| 20260510083046 | 62 | 0.0 | 0.0 | 0.00 | 0.00 | 0.00 | 100 | 1013.9 | |
| 20260510081550 | 63 | 0.0 | 0.0 | 0.00 | 0.00 | 0.00 | 100 | 1014.1 | |
| 20260510080044 | 63 | 0.0 | 0.0 | 0.00 | 0.00 | 0.00 | 100 | 1013.7 | |
| 20260510074542 | 63 | 0.0 | 0.0 | 0.00 | 0.00 | 0.00 | 100 | 1013.7 | |
| 20260510073041 | 63 | 0.0 | 0.0 | 0.00 | 0.00 | 0.00 | 100 | 1013.7 | |
| 20260510071538 | 64 | 0.0 | 0.0 | 0.00 | 0.00 | 0.00 | 100 | 1013.7 | |
| 20260510070037 | 64 | 0.0 | 0.0 | 0.00 | 0.00 | 0.00 | 2 | 1013.7 | |
| 20260510064546 | 64 | 0.0 | 0.0 | 0.00 | 0.00 | 0.00 | 3 | 1013.7 | |
| 20260510063042 | 65 | 0.0 | 0.0 | 0.00 | 0.00 | 0.00 | 4 | 1013.6 | |
| 20260510061542 | 65 | 0.0 | 0.0 | 0.00 | 0.00 | 0.00 | 5 | 1013.7 | |
| 20260510060050 | 65 | 0.0 | 0.0 | 0.00 | 0.00 | 0.00 | 6 | 1013.7 | |
| 20260510054540 | 66 | 0.0 | 0.0 | 0.00 | 0.00 | 0.00 | 7 | 1013.8 | |
| 20260510053045 | 66 | 0.0 | 0.0 | 0.00 | 0.00 | 0.00 | 9 | 1013.8 | |
| 20260510051613 | 67 | 0.0 | 0.0 | 0.00 | 0.00 | 0.00 | 9 | 1013.7 | |
| 20260510050045 | 67 | 0.0 | 0.0 | 0.00 | 0.00 | 0.00 | 9 | 1013.7 | |
| 20260510044543 | 68 | 0.0 | 0.0 | 0.00 | 0.00 | 0.00 | 11 | 1013.8 | |
| 20260510043104 | 68 | 0.0 | 0.0 | 0.00 | 0.00 | 0.00 | 12 | 1014.0 | |
| 20260510041544 | 68 | 0.0 | 0.0 | 0.00 | 0.00 | 0.00 | 12 | 1014.0 | |
| 20260510040041 | 69 | 0.0 | 0.0 | 0.00 | 0.00 | 0.00 | 14 | 1014.0 | |
| 20260510034550 | 69 | 0.0 | 0.0 | 0.00 | 0.00 | 0.00 | 15 | 1014.2 | |
| 20260510033048 | 69 | 0.0 | 0.0 | 0.00 | 0.00 | 0.00 | 16 | 1014.3 | |
| 20260510031613 | 69 | 0.0 | 0.0 | 0.00 | 0.00 | 0.00 | 19 | 1014.4 | |
| 20260510030041 | 70 | 0.0 | 0.0 | 0.00 | 0.00 | 0.00 | 22 | 1014.0 | |
| 20260510024545 | 70 | 0.0 | 0.0 | 0.00 | 0.00 | 0.00 | 22 | 1014.2 | |
| 20260510023053 | 70 | 0.0 | 0.0 | 0.00 | 0.00 | 0.00 | 23 | 1014.0 | |
| 20260510021545 | 70 | 0.0 | 0.0 | 0.00 | 0.00 | 0.00 | 24 | 1013.7 | |
| 20260510020043 | 71 | 0.0 | 0.0 | 0.00 | 0.00 | 0.00 | 26 | 1013.5 | |
| 20260510014544 | 71 | 0.0 | 0.0 | 0.00 | 0.00 | 0.00 | 29 | 1013.4 | |
| 20260510013042 | 71 | 0.0 | 0.0 | 0.00 | 0.00 | 0.00 | 30 | 1013.2 | |
| 20260510011554 | 72 | 0.0 | 0.0 | 0.00 | 0.00 | 0.00 | 32 | 1013.0 | |
| 20260510010050 | 72 | 0.0 | 0.0 | 0.00 | 0.00 | 0.00 | 34 | 1012.6 | |
| 20260510004544 | 73 | 0.0 | 0.0 | 0.00 | 0.00 | 0.00 | 37 | 1012.2 | |
| 20260510003045 | 73 | 0.0 | 0.0 | 0.00 | 0.00 | 0.00 | 41 | 1012.1 | |
| 20260510001542 | 74 | 0.0 | 0.0 | 0.00 | 0.00 | 0.00 | 43 | 1011.9 | |
| 20260510000047 | 74 | 0.0 | 0.0 | 0.00 | 0.00 | 0.00 | 49 | 1011.8 | |
| 20260509234541 | 74 | 0.0 | 0.0 | 0.00 | 0.00 | 0.00 | 50 | 1011.7 | |
| 20260509233039 | 75 | 0.0 | 0.0 | 0.00 | 0.00 | 0.00 | 52 | 1011.6 | |
| 20260509231537 | 75 | 0.0 | 0.0 | 0.00 | 0.00 | 0.00 | 53 | 1011.4 | |
| 20260509230045 | 75 | 0.0 | 0.0 | 0.00 | 0.00 | 0.00 | 54 | 1011.2 | |
| 20260509224544 | 76 | 0.0 | 0.0 | 0.00 | 0.00 | 0.00 | 57 | 1011.3 | |
| 20260509223042 | 76 | 0.0 | 0.0 | 0.00 | 0.00 | 0.00 | 62 | 1011.1 | |
| 20260509221541 | 76 | 0.0 | 0.0 | 0.00 | 0.00 | 0.00 | 67 | 1010.9 | |
| 20260509220045 | 76 | 0.0 | 0.0 | 0.00 | 0.00 | 0.00 | 66 | 1011.0 | |
| 20260509214541 | 77 | 0.0 | 0.0 | 0.00 | 0.00 | 0.00 | 66 | 1011.1 | |
| 20260509213100 | 77 | 0.0 | 0.0 | 0.00 | 0.00 | 0.00 | 64 | 1011.0 | |
| 20260509211608 | 77 | 0.0 | 0.0 | 0.00 | 0.00 | 0.00 | 61 | 1010.9 | |
| 20260509210041 | 77 | 0.0 | 0.0 | 0.00 | 0.00 | 0.00 | 66 | 1011.0 | |
| 20260509204556 | 77 | 0.0 | 0.0 | 0.00 | 0.00 | 0.00 | 67 | 1010.9 | |
| 20260509203055 | 76 | 0.0 | 0.0 | 0.00 | 0.00 | 0.00 | 65 | 1011.3 | |
| 20260509201543 | 76 | 0.0 | 0.0 | 0.00 | 0.00 | 0.00 | 63 | 1011.4 | |
| 20260509200043 | 76 | 0.0 | 0.0 | 0.00 | 0.00 | 0.00 | 62 | 1011.5 | |
| 20260509194544 | 76 | 0.0 | 0.0 | 0.00 | 0.00 | 0.00 | 59 | 1011.8 | |
| 20260509193041 | 75 | 0.0 | 0.0 | 0.00 | 0.00 | 0.00 | 55 | 1011.9 | |
| 20260509191540 | 74 | 0.0 | 0.0 | 0.00 | 0.00 | 0.00 | 46 | 1012.0 | |
| 20260509190047 | 74 | 0.0 | 0.0 | 0.00 | 0.00 | 0.00 | 45 | 1011.9 | |
| 20260509184546 | 74 | 0.0 | 0.0 | 0.00 | 0.00 | 0.00 | 44 | 1011.7 | |
| 20260509183043 | 73 | 0.0 | 0.0 | 0.00 | 0.00 | 0.00 | 31 | 1011.8 | |
| 20260509181540 | 73 | 0.0 | 0.0 | 0.00 | 0.00 | 0.00 | 11 | 1012.0 | |
| 20260509180048 | 71 | 0.0 | 0.0 | 0.00 | 0.00 | 0.00 | 1 | 1012.2 | |
| 20260509174550 | 70 | 0.0 | 0.0 | 0.00 | 0.00 | 0.00 | 100 | 1012.3 | |
| 20260509173043 | 69 | 0.0 | 0.0 | 0.00 | 0.00 | 0.00 | 100 | 1012.4 | |
| 20260509171542 | 68 | 0.0 | 0.0 | 0.00 | 0.00 | 0.00 | 100 | 1012.5 | |
| 20260509170041 | 68 | 0.0 | 0.0 | 0.00 | 0.00 | 0.00 | 100 | 1013.1 | |
| 20260509164547 | 67 | 0.0 | 0.0 | 0.00 | 0.00 | 0.00 | 100 | 1013.3 | |
| 20260509163054 | 67 | 0.0 | 0.0 | 0.00 | 0.00 | 0.00 | 100 | 1013.3 | |
| 20260509161542 | 66 | 0.0 | 0.0 | 0.00 | 0.00 | 0.00 | 100 | 1013.4 | |
| 20260509160042 | 66 | 0.0 | 0.0 | 0.00 | 0.00 | 0.00 | 100 | 1012.9 | |
| 20260509154541 | 66 | 0.0 | 0.0 | 0.00 | 0.00 | 0.00 | 100 | 1013.0 | |
| 20260509153050 | 65 | 0.0 | 0.0 | 0.00 | 0.00 | 0.00 | 100 | 1013.3 | |
| 20260509151545 | 65 | 0.0 | 0.0 | 0.00 | 0.00 | 0.00 | 100 | 1013.2 | |
| 20260509150044 | 65 | 0.0 | 0.0 | 0.00 | 0.00 | 0.00 | 100 | 1013.0 | |
| 20260509144543 | 65 | 0.0 | 0.0 | 0.00 | 0.00 | 0.00 | 100 | 1012.9 | |
| 20260509143042 | 65 | 0.0 | 0.0 | 0.00 | 0.00 | 0.00 | 100 | 1012.9 | |
| 20260509141543 | 65 | 0.0 | 0.0 | 0.00 | 0.00 | 0.00 | 100 | 1012.5 | |
| 20260509140050 | 65 | 0.0 | 0.0 | 0.00 | 0.00 | 0.00 | 100 | 1012.2 | |
| 20260509134551 | 65 | 0.0 | 0.0 | 0.00 | 0.00 | 0.00 | 100 | 1012.2 | |
| 20260509133054 | 65 | 0.0 | 0.0 | 0.00 | 0.00 | 0.00 | 100 | 1012.0 | |
| 20260509131546 | 63 | 0.0 | 0.0 | 0.00 | 0.00 | 0.00 | 100 | 1011.8 | |
| 20260509130044 | 63 | 0.0 | 0.0 | 0.00 | 0.00 | 0.00 | 100 | 1011.9 | |
| 20260509124539 | 63 | 0.0 | 0.0 | 0.00 | 0.00 | 0.00 | 100 | 1011.7 | |
| 20260509123047 | 63 | 0.0 | 0.0 | 0.00 | 0.00 | 0.00 | 100 | 1011.4 | |
| 20260509121542 | 63 | 0.0 | 0.0 | 0.00 | 0.00 | 0.00 | 100 | 1010.4 |